owner,sensor,date,latitude,longitude,vertical_datum,wind_speed,wind_to_direction,wind_speed_of_gust,qcFlag 
LOOP,urn:ioos:station:wmo:lopl1:1,2018-01-01T00:27:00Z,28.8850,-90.0250,10.0,15.3,14.0,19.3,'11111222,11111222,11111222' 
LOOP,urn:ioos:station:wmo:lopl1:1,2018-01-01T01:27:00Z,28.8850,-90.0250,10.0,15.4,10.0,19.0,'1111122,1111122,1111122' 
LOOP,urn:ioos:station:wmo:lopl1:1,2018-01-01T02:27:00Z,28.8850,-90.0250,10.0,14.4,10.0,19.0,'1111122,1111122,1111122' 
LOOP,urn:ioos:station:wmo:lopl1:1,2018-01-01T03:27:00Z,28.8850,-90.0250,10.0,11.3,20.0,16.0,'1111122,1111122,1111122' 
LOOP,urn:ioos:station:wmo:lopl1:1,2018-01-01T04:27:00Z,28.8850,-90.0250,10.0,12.4,360.0,17.0,'1111122,1111122,1111122' 
LOOP,urn:ioos:station:wmo:lopl1:1,2018-01-01T05:27:00Z,28.8850,-90.0250,10.0,11.3,360.0,16.0,'1111122,1111122,1111122' 
LOOP,urn:ioos:station:wmo:lopl1:1,2018-01-01T06:27:00Z,28.8850,-90.0250,10.0,13.4,20.0,16.5,'1111122,1111122,1111122' 
LOOP,urn:ioos:station:wmo:lopl1:1,2018-01-01T07:27:00Z,28.8850,-90.0250,10.0,12.9,10.0,17.5,'1111122,1111122,1111122' 
LOOP,urn:ioos:station:wmo:lopl1:1,2018-01-01T08:27:00Z,28.8850,-90.0250,10.0,13.9,10.0,18.0,'1111122,1111122,1111122' 
LOOP,urn:ioos:station:wmo:lopl1:1,2018-01-01T09:32:00Z,28.8850,-90.0250,10.0,11.8,10.0,16.0,'1111122,1111122,1111122' 
LOOP,urn:ioos:station:wmo:lopl1:1,2018-01-01T10:32:00Z,28.8850,-90.0250,10.0,11.8,360.0,15.4,'1111122,1111122,1111122' 
LOOP,urn:ioos:station:wmo:lopl1:1,2018-01-01T11:32:00Z,28.8850,-90.0250,10.0,12.9,360.0,15.4,'1111122,1111122,1111122' 
LOOP,urn:ioos:station:wmo:lopl1:1,2018-01-01T12:32:00Z,28.8850,-90.0250,10.0,12.9,360.0,16.5,'1111122,1111122,1111122' 
LOOP,urn:ioos:station:wmo:lopl1:1,2018-01-01T13:32:00Z,28.8850,-90.0250,10.0,12.4,10.0,17.0,'1111122,1111122,1111122' 
LOOP,urn:ioos:station:wmo:lopl1:1,2018-01-01T14:32:00Z,28.8850,-90.0250,10.0,13.4,10.0,16.5,'1111122,1111122,1111122' 
LOOP,urn:ioos:station:wmo:lopl1:1,2018-01-01T15:32:00Z,28.8850,-90.0250,10.0,12.9,360.0,17.5,'1111122,1111122,1111122' 
LOOP,urn:ioos:station:wmo:lopl1:1,2018-01-01T16:32:00Z,28.8850,-90.0250,10.0,13.9,360.0,18.0,'1111122,1111122,1111122' 
LOOP,urn:ioos:station:wmo:lopl1:1,2018-01-01T17:32:00Z,28.8850,-90.0250,10.0,14.4,360.0,17.5,'1111122,1111122,1111122' 
LOOP,urn:ioos:station:wmo:lopl1:1,2018-01-01T18:32:00Z,28.8850,-90.0250,10.0,14.4,10.0,17.5,'1111122,1111122,1111122' 
LOOP,urn:ioos:station:wmo:lopl1:1,2018-01-01T19:32:00Z,28.8850,-90.0250,10.0,13.4,20.0,17.0,'1111122,1111122,1111122' 
LOOP,urn:ioos:station:wmo:lopl1:1,2018-01-01T20:32:00Z,28.8850,-90.0250,10.0,12.9,10.0,16.5,'1111122,1111122,1111122' 
LOOP,urn:ioos:station:wmo:lopl1:1,2018-01-01T21:32:00Z,28.8850,-90.0250,10.0,12.4,350.0,17.5,'1111122,1111122,1111122' 
LOOP,urn:ioos:station:wmo:lopl1:1,2018-01-01T22:32:00Z,28.8850,-90.0250,10.0,10.8,360.0,13.9,'1111122,1111122,1111122' 
LOOP,urn:ioos:station:wmo:lopl1:1,2018-01-01T23:32:00Z,28.8850,-90.0250,10.0,13.4,10.0,17.5,'1111122,1111122,1111122' 
LOOP,urn:ioos:station:wmo:lopl1:1,2018-01-02T00:32:00Z,28.8850,-90.0250,10.0,13.4,10.0,17.5,'1111122,1111122,1111122' 
LOOP,urn:ioos:station:wmo:lopl1:1,2018-01-02T01:32:00Z,28.8850,-90.0250,10.0,14.4,10.0,18.5,'1111122,1111122,1111122' 
LOOP,urn:ioos:station:wmo:lopl1:1,2018-01-02T02:32:00Z,28.8850,-90.0250,10.0,14.9,10.0,18.0,'1111122,1111122,1111122' 
LOOP,urn:ioos:station:wmo:lopl1:1,2018-01-02T03:32:00Z,28.8850,-90.0250,10.0,15.4,30.0,19.6,'11111222,11111222,11111222' 
LOOP,urn:ioos:station:wmo:lopl1:1,2018-01-02T04:32:00Z,28.8850,-90.0250,10.0,13.4,360.0,18.0,'1111122,1111122,1111122' 
LOOP,urn:ioos:station:wmo:lopl1:1,2018-01-02T05:32:00Z,28.8850,-90.0250,10.0,14.4,20.0,18.5,'1111122,1111122,1111122' 
LOOP,urn:ioos:station:wmo:lopl1:1,2018-01-02T06:32:00Z,28.8850,-90.0250,10.0,13.9,30.0,17.0,'1111122,1111122,1111122' 
LOOP,urn:ioos:station:wmo:lopl1:1,2018-01-02T07:32:00Z,28.8850,-90.0250,10.0,15.4,20.0,20.1,'1111122,1111122,1111122' 
LOOP,urn:ioos:station:wmo:lopl1:1,2018-01-02T08:32:00Z,28.8850,-90.0250,10.0,15.4,30.0,20.1,'1111122,1111122,1111122' 
LOOP,urn:ioos:station:wmo:lopl1:1,2018-01-02T09:32:00Z,28.8850,-90.0250,10.0,14.4,20.0,19.0,'1111122,1111122,1111122' 
LOOP,urn:ioos:station:wmo:lopl1:1,2018-01-02T10:32:00Z,28.8850,-90.0250,10.0,12.9,10.0,16.5,'1111122,1111122,1111122' 
LOOP,urn:ioos:station:wmo:lopl1:1,2018-01-02T11:32:00Z,28.8850,-90.0250,10.0,14.4,30.0,17.5,'1111122,1111122,1111122' 
LOOP,urn:ioos:station:wmo:lopl1:1,2018-01-02T12:32:00Z,28.8850,-90.0250,10.0,12.4,30.0,16.5,'1111122,1111122,1111122' 
LOOP,urn:ioos:station:wmo:lopl1:1,2018-01-02T13:32:00Z,28.8850,-90.0250,10.0,11.3,20.0,17.0,'1111122,1111122,1111122' 
LOOP,urn:ioos:station:wmo:lopl1:1,2018-01-02T14:32:00Z,28.8850,-90.0250,10.0,11.8,20.0,17.0,'1111122,1111122,1111122' 
LOOP,urn:ioos:station:wmo:lopl1:1,2018-01-02T15:32:00Z,28.8850,-90.0250,10.0,12.4,40.0,16.0,'1111122,1111122,1111122' 
LOOP,urn:ioos:station:wmo:lopl1:1,2018-01-02T16:32:00Z,28.8850,-90.0250,10.0,12.4,20.0,17.0,'1111122,1111122,1111122' 
LOOP,urn:ioos:station:wmo:lopl1:1,2018-01-02T17:32:00Z,28.8850,-90.0250,10.0,11.8,15.0,16.1,'11111222,11111222,11111222' 
LOOP,urn:ioos:station:wmo:lopl1:1,2018-01-02T18:32:00Z,28.8850,-90.0250,10.0,11.1,38.0,14.1,'11111222,11111222,11111222' 
LOOP,urn:ioos:station:wmo:lopl1:1,2018-01-02T19:32:00Z,28.8850,-90.0250,10.0,11.3,10.0,13.9,'1111122,1111122,1111122' 
LOOP,urn:ioos:station:wmo:lopl1:1,2018-01-02T20:32:00Z,28.8850,-90.0250,10.0,10.8,20.0,13.4,'1111122,1111122,1111122' 
LOOP,urn:ioos:station:wmo:lopl1:1,2018-01-02T21:32:00Z,28.8850,-90.0250,10.0,9.8,30.0,11.3,'1111122,1111122,1111122' 
LOOP,urn:ioos:station:wmo:lopl1:1,2018-01-02T22:32:00Z,28.8850,-90.0250,10.0,11.3,20.0,14.4,'1111122,1111122,1111122' 
LOOP,urn:ioos:station:wmo:lopl1:1,2018-01-02T23:32:00Z,28.8850,-90.0250,10.0,10.8,20.0,13.9,'1111122,1111122,1111122' 
LOOP,urn:ioos:station:wmo:lopl1:1,2018-01-03T00:32:00Z,28.8850,-90.0250,10.0,9.8,20.0,12.9,'1111122,1111122,1111122' 
LOOP,urn:ioos:station:wmo:lopl1:1,2018-01-03T01:32:00Z,28.8850,-90.0250,10.0,9.8,30.0,12.9,'1111122,1111122,1111122' 
LOOP,urn:ioos:station:wmo:lopl1:1,2018-01-03T02:32:00Z,28.8850,-90.0250,10.0,9.9,12.0,13.8,'11111222,11111222,11111222' 
LOOP,urn:ioos:station:wmo:lopl1:1,2018-01-03T03:32:00Z,28.8850,-90.0250,10.0,9.3,10.0,13.4,'1111122,1111122,1111122' 
LOOP,urn:ioos:station:wmo:lopl1:1,2018-01-03T04:32:00Z,28.8850,-90.0250,10.0,9.8,20.0,12.9,'1111122,1111122,1111122' 
LOOP,urn:ioos:station:wmo:lopl1:1,2018-01-03T05:32:00Z,28.8850,-90.0250,10.0,9.3,20.0,13.4,'1111122,1111122,1111122' 
LOOP,urn:ioos:station:wmo:lopl1:1,2018-01-03T06:37:00Z,28.8850,-90.0250,10.0,9.3,10.0,11.3,'1111122,1111122,1111122' 
LOOP,urn:ioos:station:wmo:lopl1:1,2018-01-03T07:37:00Z,28.8850,-90.0250,10.0,9.3,360.0,12.4,'1111122,1111122,1111122' 
LOOP,urn:ioos:station:wmo:lopl1:1,2018-01-03T08:37:00Z,28.8850,-90.0250,10.0,11.8,360.0,14.9,'1111122,1111122,1111122' 
LOOP,urn:ioos:station:wmo:lopl1:1,2018-01-03T09:37:00Z,28.8850,-90.0250,10.0,12.9,10.0,16.0,'1111122,1111122,1111122' 
LOOP,urn:ioos:station:wmo:lopl1:1,2018-01-03T10:37:00Z,28.8850,-90.0250,10.0,10.8,10.0,12.9,'1111122,1111122,1111122' 
LOOP,urn:ioos:station:wmo:lopl1:1,2018-01-03T11:37:00Z,28.8850,-90.0250,10.0,9.3,20.0,10.8,'1111122,1111122,1111122' 
LOOP,urn:ioos:station:wmo:lopl1:1,2018-01-03T12:37:00Z,28.8850,-90.0250,10.0,5.1,350.0,8.2,'1111122,1111122,1111122' 
LOOP,urn:ioos:station:wmo:lopl1:1,2018-01-03T13:37:00Z,28.8850,-90.0250,10.0,6.2,330.0,9.3,'1111122,1111122,1111122' 
LOOP,urn:ioos:station:wmo:lopl1:1,2018-01-03T14:37:00Z,28.8850,-90.0250,10.0,7.2,350.0,11.3,'1111122,1111122,1111122' 
LOOP,urn:ioos:station:wmo:lopl1:1,2018-01-03T15:37:00Z,28.8850,-90.0250,10.0,5.7,360.0,10.8,'1111122,1111122,1111122' 
LOOP,urn:ioos:station:wmo:lopl1:1,2018-01-03T16:37:00Z,28.8850,-90.0250,10.0,6.2,350.0,11.8,'1111122,1111122,1111122' 
LOOP,urn:ioos:station:wmo:lopl1:1,2018-01-03T17:37:00Z,28.8850,-90.0250,10.0,6.7,10.0,12.9,'1111122,1111122,1111122' 
LOOP,urn:ioos:station:wmo:lopl1:1,2018-01-03T18:37:00Z,28.8850,-90.0250,10.0,5.7,340.0,9.3,'1111122,1111122,1111122' 
LOOP,urn:ioos:station:wmo:lopl1:1,2018-01-03T19:37:00Z,28.8850,-90.0250,10.0,6.2,330.0,9.8,'1111122,1111122,1111122' 
LOOP,urn:ioos:station:wmo:lopl1:1,2018-01-03T20:37:00Z,28.8850,-90.0250,10.0,5.1,340.0,8.8,'1111122,1111122,1111122' 
LOOP,urn:ioos:station:wmo:lopl1:1,2018-01-03T21:37:00Z,28.8850,-90.0250,10.0,7.7,330.0,10.8,'1111122,1111122,1111122' 
LOOP,urn:ioos:station:wmo:lopl1:1,2018-01-03T22:37:00Z,28.8850,-90.0250,10.0,5.7,350.0,9.3,'1111122,1111122,1111122' 
LOOP,urn:ioos:station:wmo:lopl1:1,2018-01-03T23:37:00Z,28.8850,-90.0250,10.0,6.2,340.0,10.3,'1111122,1111122,1111122' 
LOOP,urn:ioos:station:wmo:lopl1:1,2018-01-04T00:37:00Z,28.8850,-90.0250,10.0,6.7,340.0,7.7,'1111122,1111122,1111122' 
LOOP,urn:ioos:station:wmo:lopl1:1,2018-01-04T01:37:00Z,28.8850,-90.0250,10.0,6.7,340.0,12.4,'1111122,1111122,1111122' 
LOOP,urn:ioos:station:wmo:lopl1:1,2018-01-04T02:37:00Z,28.8850,-90.0250,10.0,8.2,330.0,12.9,'1111122,1111122,1111122' 
LOOP,urn:ioos:station:wmo:lopl1:1,2018-01-04T03:37:00Z,28.8850,-90.0250,10.0,7.7,340.0,11.3,'1111122,1111122,1111122' 
LOOP,urn:ioos:station:wmo:lopl1:1,2018-01-04T04:37:00Z,28.8850,-90.0250,10.0,8.2,340.0,11.8,'1111122,1111122,1111122' 
LOOP,urn:ioos:station:wmo:lopl1:1,2018-01-04T05:37:00Z,28.8850,-90.0250,10.0,8.3,358.0,14.0,'11111222,11111222,11111222' 
LOOP,urn:ioos:station:wmo:lopl1:1,2018-01-04T06:37:00Z,28.8850,-90.0250,10.0,7.3,344.0,8.8,'11111222,11111222,11111222' 
LOOP,urn:ioos:station:wmo:lopl1:1,2018-01-04T07:37:00Z,28.8850,-90.0250,10.0,6.7,10.0,10.8,'1111122,1111122,1111122' 
LOOP,urn:ioos:station:wmo:lopl1:1,2018-01-04T08:37:00Z,28.8850,-90.0250,10.0,6.2,350.0,9.8,'1111122,1111122,1111122' 
LOOP,urn:ioos:station:wmo:lopl1:1,2018-01-04T09:37:00Z,28.8850,-90.0250,10.0,6.7,360.0,9.3,'1111122,1111122,1111122' 
LOOP,urn:ioos:station:wmo:lopl1:1,2018-01-04T10:37:00Z,28.8850,-90.0250,10.0,6.7,350.0,9.8,'1111122,1111122,1111122' 
LOOP,urn:ioos:station:wmo:lopl1:1,2018-01-04T11:37:00Z,28.8850,-90.0250,10.0,6.7,360.0,10.3,'1111122,1111122,1111122' 
LOOP,urn:ioos:station:wmo:lopl1:1,2018-01-04T12:37:00Z,28.8850,-90.0250,10.0,6.7,360.0,10.3,'1111122,1111122,1111122' 
LOOP,urn:ioos:station:wmo:lopl1:1,2018-01-04T13:37:00Z,28.8850,-90.0250,10.0,8.2,360.0,10.8,'1111122,1111122,1111122' 
LOOP,urn:ioos:station:wmo:lopl1:1,2018-01-04T14:37:00Z,28.8850,-90.0250,10.0,6.7,10.0,9.8,'1111122,1111122,1111122' 
LOOP,urn:ioos:station:wmo:lopl1:1,2018-01-04T15:37:00Z,28.8850,-90.0250,10.0,6.2,10.0,8.2,'1111122,1111122,1111122' 
LOOP,urn:ioos:station:wmo:lopl1:1,2018-01-04T16:37:00Z,28.8850,-90.0250,10.0,5.1,10.0,7.2,'1111122,1111122,1111122' 
LOOP,urn:ioos:station:wmo:lopl1:1,2018-01-04T17:37:00Z,28.8850,-90.0250,10.0,3.6,360.0,6.2,'1111122,1111122,1111122' 
LOOP,urn:ioos:station:wmo:lopl1:1,2018-01-04T18:37:00Z,28.8850,-90.0250,10.0,3.1,360.0,6.7,'1111122,1111122,1111122' 
LOOP,urn:ioos:station:wmo:lopl1:1,2018-01-04T19:37:00Z,28.8850,-90.0250,10.0,3.6,340.0,5.1,'1111122,1111122,1111122' 
LOOP,urn:ioos:station:wmo:lopl1:1,2018-01-04T20:37:00Z,28.8850,-90.0250,10.0,2.1,360.0,3.6,'1111122,1111122,1111122' 
LOOP,urn:ioos:station:wmo:lopl1:1,2018-01-04T21:37:00Z,28.8850,-90.0250,10.0,2.6,10.0,4.1,'1111122,1111122,1111122' 
LOOP,urn:ioos:station:wmo:lopl1:1,2018-01-04T22:42:00Z,28.8850,-90.0250,10.0,3.6,310.0,5.7,'1111122,1111122,1111122' 
LOOP,urn:ioos:station:wmo:lopl1:1,2018-01-04T23:42:00Z,28.8850,-90.0250,10.0,3.1,360.0,5.7,'1111122,1111122,1111122' 
LOOP,urn:ioos:station:wmo:lopl1:1,2018-01-05T00:42:00Z,28.8850,-90.0250,10.0,4.1,360.0,5.7,'1111122,1111122,1111122' 
LOOP,urn:ioos:station:wmo:lopl1:1,2018-01-05T01:42:00Z,28.8850,-90.0250,10.0,5.1,360.0,7.7,'1111122,1111122,1111122' 
LOOP,urn:ioos:station:wmo:lopl1:1,2018-01-05T02:42:00Z,28.8850,-90.0250,10.0,4.6,10.0,6.7,'1111122,1111122,1111122' 
LOOP,urn:ioos:station:wmo:lopl1:1,2018-01-05T03:42:00Z,28.8850,-90.0250,10.0,7.2,20.0,9.3,'1111122,1111122,1111122' 
LOOP,urn:ioos:station:wmo:lopl1:1,2018-01-05T04:42:00Z,28.8850,-90.0250,10.0,6.7,10.0,8.8,'1111122,1111122,1111122' 
LOOP,urn:ioos:station:wmo:lopl1:1,2018-01-05T05:42:00Z,28.8850,-90.0250,10.0,6.2,10.0,8.2,'1111122,1111122,1111122' 
LOOP,urn:ioos:station:wmo:lopl1:1,2018-01-05T06:42:00Z,28.8850,-90.0250,10.0,6.2,20.0,8.2,'1111122,1111122,1111122' 
LOOP,urn:ioos:station:wmo:lopl1:1,2018-01-05T07:42:00Z,28.8850,-90.0250,10.0,6.2,40.0,7.7,'1111122,1111122,1111122' 
LOOP,urn:ioos:station:wmo:lopl1:1,2018-01-05T08:42:00Z,28.8850,-90.0250,10.0,6.2,20.0,8.8,'1111122,1111122,1111122' 
LOOP,urn:ioos:station:wmo:lopl1:1,2018-01-05T09:42:00Z,28.8850,-90.0250,10.0,6.7,30.0,9.3,'1111122,1111122,1111122' 
LOOP,urn:ioos:station:wmo:lopl1:1,2018-01-05T10:42:00Z,28.8850,-90.0250,10.0,7.7,20.0,10.3,'1111122,1111122,1111122' 
LOOP,urn:ioos:station:wmo:lopl1:1,2018-01-05T11:42:00Z,28.8850,-90.0250,10.0,6.7,20.0,9.3,'1111122,1111122,1111122' 
LOOP,urn:ioos:station:wmo:lopl1:1,2018-01-05T12:42:00Z,28.8850,-90.0250,10.0,6.7,30.0,9.3,'1111122,1111122,1111122' 
LOOP,urn:ioos:station:wmo:lopl1:1,2018-01-05T13:42:00Z,28.8850,-90.0250,10.0,5.7,40.0,7.7,'1111122,1111122,1111122' 
LOOP,urn:ioos:station:wmo:lopl1:1,2018-01-05T14:42:00Z,28.8850,-90.0250,10.0,5.5,49.0,7.5,'11111222,11111222,11111222' 
LOOP,urn:ioos:station:wmo:lopl1:1,2018-01-05T15:42:00Z,28.8850,-90.0250,10.0,5.7,40.0,7.7,'1111122,1111122,1111122' 
LOOP,urn:ioos:station:wmo:lopl1:1,2018-01-05T16:42:00Z,28.8850,-90.0250,10.0,5.7,60.0,7.7,'1111122,1111122,1111122' 
LOOP,urn:ioos:station:wmo:lopl1:1,2018-01-05T17:42:00Z,28.8850,-90.0250,10.0,6.2,20.0,8.8,'1111122,1111122,1111122' 
LOOP,urn:ioos:station:wmo:lopl1:1,2018-01-05T18:42:00Z,28.8850,-90.0250,10.0,6.7,60.0,8.8,'1111122,1111122,1111122' 
LOOP,urn:ioos:station:wmo:lopl1:1,2018-01-05T19:42:00Z,28.8850,-90.0250,10.0,5.1,30.0,7.2,'1111122,1111122,1111122' 
LOOP,urn:ioos:station:wmo:lopl1:1,2018-01-05T20:42:00Z,28.8850,-90.0250,10.0,6.7,30.0,8.2,'1111122,1111122,1111122' 
LOOP,urn:ioos:station:wmo:lopl1:1,2018-01-05T21:42:00Z,28.8850,-90.0250,10.0,7.2,10.0,9.8,'1111122,1111122,1111122' 
LOOP,urn:ioos:station:wmo:lopl1:1,2018-01-05T22:42:00Z,28.8850,-90.0250,10.0,7.2,20.0,9.3,'1111122,1111122,1111122' 
LOOP,urn:ioos:station:wmo:lopl1:1,2018-01-05T23:42:00Z,28.8850,-90.0250,10.0,6.2,10.0,7.2,'1111122,1111122,1111122' 
LOOP,urn:ioos:station:wmo:lopl1:1,2018-01-06T00:42:00Z,28.8850,-90.0250,10.0,6.2,30.0,7.7,'1111122,1111122,1111122' 
LOOP,urn:ioos:station:wmo:lopl1:1,2018-01-06T01:42:00Z,28.8850,-90.0250,10.0,6.6,40.0,8.5,'11111222,11111222,11111222' 
LOOP,urn:ioos:station:wmo:lopl1:1,2018-01-06T02:42:00Z,28.8850,-90.0250,10.0,5.7,60.0,7.7,'1111122,1111122,1111122' 
LOOP,urn:ioos:station:wmo:lopl1:1,2018-01-06T03:42:00Z,28.8850,-90.0250,10.0,5.7,50.0,7.2,'1111122,1111122,1111122' 
LOOP,urn:ioos:station:wmo:lopl1:1,2018-01-06T04:42:00Z,28.8850,-90.0250,10.0,5.7,30.0,7.2,'1111122,1111122,1111122' 
LOOP,urn:ioos:station:wmo:lopl1:1,2018-01-06T05:42:00Z,28.8850,-90.0250,10.0,7.7,20.0,9.8,'1111122,1111122,1111122' 
LOOP,urn:ioos:station:wmo:lopl1:1,2018-01-06T06:42:00Z,28.8850,-90.0250,10.0,8.8,20.0,10.3,'1111122,1111122,1111122' 
LOOP,urn:ioos:station:wmo:lopl1:1,2018-01-06T07:43:00Z,28.8850,-90.0250,10.0,8.8,30.0,10.3,'1111122,1111122,1111122' 
LOOP,urn:ioos:station:wmo:lopl1:1,2018-01-06T08:43:00Z,28.8850,-90.0250,10.0,7.2,40.0,9.3,'1111122,1111122,1111122' 
LOOP,urn:ioos:station:wmo:lopl1:1,2018-01-06T09:43:00Z,28.8850,-90.0250,10.0,9.3,30.0,11.3,'1111122,1111122,1111122' 
LOOP,urn:ioos:station:wmo:lopl1:1,2018-01-06T10:43:00Z,28.8850,-90.0250,10.0,8.8,30.0,10.3,'1111122,1111122,1111122' 
LOOP,urn:ioos:station:wmo:lopl1:1,2018-01-06T11:48:00Z,28.8850,-90.0250,10.0,8.8,30.0,10.8,'1111122,1111122,1111122' 
LOOP,urn:ioos:station:wmo:lopl1:1,2018-01-06T12:48:00Z,28.8850,-90.0250,10.0,8.8,30.0,10.8,'1111122,1111122,1111122' 
LOOP,urn:ioos:station:wmo:lopl1:1,2018-01-06T13:48:00Z,28.8850,-90.0250,10.0,9.3,30.0,11.3,'1111122,1111122,1111122' 
LOOP,urn:ioos:station:wmo:lopl1:1,2018-01-06T14:48:00Z,28.8850,-90.0250,10.0,9.3,40.0,10.8,'1111122,1111122,1111122' 
LOOP,urn:ioos:station:wmo:lopl1:1,2018-01-06T15:48:00Z,28.8850,-90.0250,10.0,8.8,30.0,10.8,'1111122,1111122,1111122' 
LOOP,urn:ioos:station:wmo:lopl1:1,2018-01-06T16:48:00Z,28.8850,-90.0250,10.0,8.8,40.0,10.3,'1111122,1111122,1111122' 
LOOP,urn:ioos:station:wmo:lopl1:1,2018-01-06T17:48:00Z,28.8850,-90.0250,10.0,9.3,30.0,11.3,'1111122,1111122,1111122' 
LOOP,urn:ioos:station:wmo:lopl1:1,2018-01-06T18:48:00Z,28.8850,-90.0250,10.0,9.8,30.0,11.3,'1111122,1111122,1111122' 
LOOP,urn:ioos:station:wmo:lopl1:1,2018-01-06T19:48:00Z,28.8850,-90.0250,10.0,10.3,30.0,12.9,'1111122,1111122,1111122' 
LOOP,urn:ioos:station:wmo:lopl1:1,2018-01-06T20:48:00Z,28.8850,-90.0250,10.0,9.8,30.0,11.3,'1111122,1111122,1111122' 
LOOP,urn:ioos:station:wmo:lopl1:1,2018-01-06T21:48:00Z,28.8850,-90.0250,10.0,10.8,50.0,13.4,'1111122,1111122,1111122' 
LOOP,urn:ioos:station:wmo:lopl1:1,2018-01-06T22:48:00Z,28.8850,-90.0250,10.0,10.3,40.0,12.9,'1111122,1111122,1111122' 
LOOP,urn:ioos:station:wmo:lopl1:1,2018-01-06T23:48:00Z,28.8850,-90.0250,10.0,8.8,50.0,10.8,'1111122,1111122,1111122' 
LOOP,urn:ioos:station:wmo:lopl1:1,2018-01-07T00:48:00Z,28.8850,-90.0250,10.0,9.8,70.0,11.3,'1111122,1111122,1111122' 
LOOP,urn:ioos:station:wmo:lopl1:1,2018-01-07T01:48:00Z,28.8850,-90.0250,10.0,9.8,60.0,12.4,'1111122,1111122,1111122' 
LOOP,urn:ioos:station:wmo:lopl1:1,2018-01-07T02:48:00Z,28.8850,-90.0250,10.0,9.8,70.0,11.8,'1111122,1111122,1111122' 
LOOP,urn:ioos:station:wmo:lopl1:1,2018-01-07T03:48:00Z,28.8850,-90.0250,10.0,8.2,60.0,9.8,'1111122,1111122,1111122' 
LOOP,urn:ioos:station:wmo:lopl1:1,2018-01-07T04:48:00Z,28.8850,-90.0250,10.0,8.2,80.0,9.8,'1111122,1111122,1111122' 
LOOP,urn:ioos:station:wmo:lopl1:1,2018-01-07T05:48:00Z,28.8850,-90.0250,10.0,7.7,70.0,8.8,'1111122,1111122,1111122' 
LOOP,urn:ioos:station:wmo:lopl1:1,2018-01-07T06:48:00Z,28.8850,-90.0250,10.0,8.2,70.0,9.3,'1111122,1111122,1111122' 
LOOP,urn:ioos:station:wmo:lopl1:1,2018-01-07T07:48:00Z,28.8850,-90.0250,10.0,10.3,120.0,11.3,'1111122,1111122,1111122' 
LOOP,urn:ioos:station:wmo:lopl1:1,2018-01-07T08:48:00Z,28.8850,-90.0250,10.0,11.3,110.0,12.9,'1111122,1111122,1111122' 
LOOP,urn:ioos:station:wmo:lopl1:1,2018-01-07T09:48:00Z,28.8850,-90.0250,10.0,10.8,140.0,12.4,'1111122,1111122,1111122' 
LOOP,urn:ioos:station:wmo:lopl1:1,2018-01-07T10:48:00Z,28.8850,-90.0250,10.0,11.3,140.0,12.4,'1111122,1111122,1111122' 
LOOP,urn:ioos:station:wmo:lopl1:1,2018-01-07T11:48:00Z,28.8850,-90.0250,10.0,11.3,160.0,13.4,'1111122,1111122,1111122' 
LOOP,urn:ioos:station:wmo:lopl1:1,2018-01-07T12:48:00Z,28.8850,-90.0250,10.0,11.8,160.0,13.4,'1111122,1111122,1111122' 
LOOP,urn:ioos:station:wmo:lopl1:1,2018-01-07T13:48:00Z,28.8850,-90.0250,10.0,12.9,140.0,13.9,'1111122,1111122,1111122' 
LOOP,urn:ioos:station:wmo:lopl1:1,2018-01-07T14:48:00Z,28.8850,-90.0250,10.0,12.4,150.0,13.9,'1111122,1111122,1111122' 
LOOP,urn:ioos:station:wmo:lopl1:1,2018-01-07T15:48:00Z,28.8850,-90.0250,10.0,12.9,140.0,14.4,'1111122,1111122,1111122' 
LOOP,urn:ioos:station:wmo:lopl1:1,2018-01-07T16:48:00Z,28.8850,-90.0250,10.0,12.9,150.0,14.4,'1111122,1111122,1111122' 
LOOP,urn:ioos:station:wmo:lopl1:1,2018-01-07T17:48:00Z,28.8850,-90.0250,10.0,12.9,140.0,14.9,'1111122,1111122,1111122' 
LOOP,urn:ioos:station:wmo:lopl1:1,2018-01-07T18:48:00Z,28.8850,-90.0250,10.0,12.9,140.0,15.4,'1111122,1111122,1111122' 
LOOP,urn:ioos:station:wmo:lopl1:1,2018-01-07T19:48:00Z,28.8850,-90.0250,10.0,13.9,140.0,15.4,'1111122,1111122,1111122' 
LOOP,urn:ioos:station:wmo:lopl1:1,2018-01-07T20:48:00Z,28.8850,-90.0250,10.0,14.9,140.0,16.5,'1111122,1111122,1111122' 
LOOP,urn:ioos:station:wmo:lopl1:1,2018-01-07T21:48:00Z,28.8850,-90.0250,10.0,15.1,150.0,16.5,'11111222,11111222,11111222' 
LOOP,urn:ioos:station:wmo:lopl1:1,2018-01-07T22:48:00Z,28.8850,-90.0250,10.0,16.0,150.0,17.5,'1111122,1111122,1111122' 
LOOP,urn:ioos:station:wmo:lopl1:1,2018-01-07T23:48:00Z,28.8850,-90.0250,10.0,14.9,160.0,17.0,'1111122,1111122,1111122' 
LOOP,urn:ioos:station:wmo:lopl1:1,2018-01-08T00:53:00Z,28.8850,-90.0250,10.0,14.9,140.0,17.5,'1111122,1111122,1111122' 
LOOP,urn:ioos:station:wmo:lopl1:1,2018-01-08T01:53:00Z,28.8850,-90.0250,10.0,16.0,160.0,17.5,'1111122,1111122,1111122' 
LOOP,urn:ioos:station:wmo:lopl1:1,2018-01-08T02:53:00Z,28.8850,-90.0250,10.0,16.5,160.0,18.5,'1111122,1111122,1111122' 
LOOP,urn:ioos:station:wmo:lopl1:1,2018-01-08T03:53:00Z,28.8850,-90.0250,10.0,17.0,160.0,19.6,'1111122,1111122,1111122' 
LOOP,urn:ioos:station:wmo:lopl1:1,2018-01-08T04:58:00Z,28.8850,-90.0250,10.0,17.5,160.0,20.1,'1111122,1111122,1111122' 
LOOP,urn:ioos:station:wmo:lopl1:1,2018-01-08T05:58:00Z,28.8850,-90.0250,10.0,17.5,170.0,19.6,'1111122,1111122,1111122' 
LOOP,urn:ioos:station:wmo:lopl1:1,2018-01-08T06:58:00Z,28.8850,-90.0250,10.0,18.0,160.0,20.1,'1111122,1111122,1111122' 
LOOP,urn:ioos:station:wmo:lopl1:1,2018-01-08T07:58:00Z,28.8850,-90.0250,10.0,16.5,160.0,21.6,'1111122,1111122,1111122' 
LOOP,urn:ioos:station:wmo:lopl1:1,2018-01-08T08:58:00Z,28.8850,-90.0250,10.0,7.7,-9999.0,11.8,'1111122,1111122,1111122' 
LOOP,urn:ioos:station:wmo:lopl1:1,2018-01-08T09:58:00Z,28.8850,-90.0250,10.0,19.0,-9999.0,21.6,'1111122,1111122,1111122' 
LOOP,urn:ioos:station:wmo:lopl1:1,2018-01-08T10:58:00Z,28.8850,-90.0250,10.0,15.4,-9999.0,19.0,'1111122,1111122,1111122' 
LOOP,urn:ioos:station:wmo:lopl1:1,2018-01-08T11:58:00Z,28.8850,-90.0250,10.0,9.3,-9999.0,13.4,'1111122,1111122,1111122' 
LOOP,urn:ioos:station:wmo:lopl1:1,2018-01-08T12:58:00Z,28.8850,-90.0250,10.0,15.4,-9999.0,18.0,'1111122,1111122,1111122' 
LOOP,urn:ioos:station:wmo:lopl1:1,2018-01-08T13:58:00Z,28.8850,-90.0250,10.0,7.2,290.0,12.9,'1111122,1111122,1111122' 
LOOP,urn:ioos:station:wmo:lopl1:1,2018-01-08T14:58:00Z,28.8850,-90.0250,10.0,5.1,290.0,6.7,'1111122,1111122,1111122' 
LOOP,urn:ioos:station:wmo:lopl1:1,2018-01-08T15:58:00Z,28.8850,-90.0250,10.0,5.7,260.0,8.8,'1111122,1111122,1111122' 
LOOP,urn:ioos:station:wmo:lopl1:1,2018-01-08T16:58:00Z,28.8850,-90.0250,10.0,3.6,280.0,6.2,'1111122,1111122,1111122' 
LOOP,urn:ioos:station:wmo:lopl1:1,2018-01-08T17:58:00Z,28.8850,-90.0250,10.0,4.1,280.0,6.7,'1111122,1111122,1111122' 
LOOP,urn:ioos:station:wmo:lopl1:1,2018-01-08T18:58:00Z,28.8850,-90.0250,10.0,4.6,290.0,8.8,'1111122,1111122,1111122' 
LOOP,urn:ioos:station:wmo:lopl1:1,2018-01-08T19:58:00Z,28.8850,-90.0250,10.0,4.1,290.0,6.2,'1111122,1111122,1111122' 
LOOP,urn:ioos:station:wmo:lopl1:1,2018-01-08T20:58:00Z,28.8850,-90.0250,10.0,4.1,310.0,5.7,'1111122,1111122,1111122' 
LOOP,urn:ioos:station:wmo:lopl1:1,2018-01-08T21:58:00Z,28.8850,-90.0250,10.0,3.6,310.0,5.1,'1111122,1111122,1111122' 
LOOP,urn:ioos:station:wmo:lopl1:1,2018-01-08T22:58:00Z,28.8850,-90.0250,10.0,4.6,290.0,6.2,'1111122,1111122,1111122' 
LOOP,urn:ioos:station:wmo:lopl1:1,2018-01-08T23:58:00Z,28.8850,-90.0250,10.0,4.6,310.0,6.7,'1111122,1111122,1111122' 
LOOP,urn:ioos:station:wmo:lopl1:1,2018-01-09T00:58:00Z,28.8850,-90.0250,10.0,4.6,310.0,6.2,'1111122,1111122,1111122' 
LOOP,urn:ioos:station:wmo:lopl1:1,2018-01-09T01:58:00Z,28.8850,-90.0250,10.0,5.1,330.0,9.3,'1111122,1111122,1111122' 
LOOP,urn:ioos:station:wmo:lopl1:1,2018-01-09T02:58:00Z,28.8850,-90.0250,10.0,7.2,330.0,10.3,'1111122,1111122,1111122' 
LOOP,urn:ioos:station:wmo:lopl1:1,2018-01-09T03:58:00Z,28.8850,-90.0250,10.0,7.7,340.0,9.3,'1111122,1111122,1111122' 
LOOP,urn:ioos:station:wmo:lopl1:1,2018-01-09T04:58:00Z,28.8850,-90.0250,10.0,7.7,330.0,11.8,'1111122,1111122,1111122' 
LOOP,urn:ioos:station:wmo:lopl1:1,2018-01-09T05:58:00Z,28.8850,-90.0250,10.0,6.2,330.0,9.3,'1111122,1111122,1111122' 
LOOP,urn:ioos:station:wmo:lopl1:1,2018-01-09T06:58:00Z,28.8850,-90.0250,10.0,5.1,350.0,7.2,'1111122,1111122,1111122' 
LOOP,urn:ioos:station:wmo:lopl1:1,2018-01-09T07:58:00Z,28.8850,-90.0250,10.0,5.7,350.0,8.8,'1111122,1111122,1111122' 
LOOP,urn:ioos:station:wmo:lopl1:1,2018-01-09T08:58:00Z,28.8850,-90.0250,10.0,5.7,360.0,9.3,'1111122,1111122,1111122' 